GWRLD LESO-LPPR

Flight info

Callsign GWRLD
Flight time 0h 57m
Altitude 33000
Route PPN N976 DGO DCT NEA DCT ZMR DCT ADORO DCT INKIT
Aircraft CL60/M-SBDE1E2E3FGHIJ1J4J5J7M3RWXYZ/LB1V1D1

Departure

Time 2026-04-30 20:50
Airport San Sebastián Airport (LESO)

Arrival

Time 2026-04-30 21:47
Airport Francisco de Sá Carneiro Airport (LPPR)
Time Latitude Longitude Altitude Speed Heading
2026-04-30 20:37 43.35598 -1.79273 10 ft 0 kts 38°
2026-04-30 20:46 43.35693 -1.79030 10 ft 15 kts 46°
2026-04-30 20:46 43.35786 -1.78912 10 ft 20 kts 39°
2026-04-30 20:47 43.36050 -1.78619 10 ft 27 kts 38°
2026-04-30 20:47 43.36188 -1.78469 10 ft 14 kts 38°
2026-04-30 20:48 43.36255 -1.78392 10 ft 15 kts 294°
2026-04-30 20:48 43.36262 -1.78437 10 ft 2 kts 250°
2026-04-30 20:48 43.36235 -1.78434 10 ft 3 kts 163°
2026-04-30 20:48 43.36156 -1.78512 10 ft 13 kts 234°
2026-04-30 20:49 43.36142 -1.78521 10 ft 6 kts 198°
2026-04-30 20:49 43.35931 -1.78751 10 ft 83 kts 218°
2026-04-30 20:49 43.35236 -1.79521 122 ft 160 kts 220°
2026-04-30 20:50 43.33367 -1.81868 1758 ft 199 kts 226°
2026-04-30 20:50 43.32459 -1.83301 2873 ft 204 kts 230°
2026-04-30 20:50 43.31559 -1.84797 3922 ft 211 kts 231°
2026-04-30 20:50 43.30620 -1.86309 5069 ft 213 kts 228°
2026-04-30 20:51 43.29588 -1.87897 5712 ft 237 kts 227°
2026-04-30 20:51 43.27136 -1.91652 6945 ft 276 kts 228°
2026-04-30 20:51 43.25700 -1.93450 7581 ft 277 kts 209°
2026-04-30 20:52 43.23859 -1.94328 8218 ft 281 kts 194°
2026-04-30 20:52 43.21935 -1.94989 8850 ft 283 kts 194°
2026-04-30 20:52 43.18103 -1.96331 10110 ft 286 kts 195°
2026-04-30 20:53 43.16077 -1.97043 10744 ft 311 kts 195°
2026-04-30 20:53 43.13889 -1.97812 11368 ft 334 kts 195°
2026-04-30 20:53 43.11563 -1.98629 11993 ft 346 kts 195°
2026-04-30 20:54 43.06820 -2.00292 13242 ft 354 kts 195°
2026-04-30 20:54 43.04428 -2.01131 13874 ft 359 kts 195°
2026-04-30 20:54 43.01949 -2.01999 14516 ft 363 kts 195°
2026-04-30 20:55 42.96979 -2.03738 15783 ft 370 kts 195°
2026-04-30 20:55 42.94453 -2.04621 16419 ft 374 kts 195°
2026-04-30 20:55 42.91904 -2.05511 17050 ft 377 kts 195°
2026-04-30 20:56 42.86740 -2.07313 18324 ft 383 kts 196°
2026-04-30 20:56 42.84155 -2.08215 18957 ft 386 kts 196°
2026-04-30 20:56 42.78878 -2.10052 20224 ft 392 kts 196°
2026-04-30 20:57 42.76196 -2.10988 20904 ft 394 kts 196°
2026-04-30 20:57 42.73548 -2.11995 21767 ft 394 kts 198°
2026-04-30 20:57 42.70853 -2.12954 22429 ft 400 kts 196°
2026-04-30 20:58 42.65567 -2.15449 23710 ft 407 kts 213°
2026-04-30 20:58 42.63382 -2.17944 24357 ft 409 kts 230°
2026-04-30 20:58 42.61824 -2.21173 24995 ft 411 kts 246°
2026-04-30 20:58 42.60835 -2.24879 25619 ft 415 kts 252°
2026-04-30 20:59 42.59020 -2.32389 26887 ft 419 kts 252°
2026-04-30 20:59 42.58097 -2.36188 27524 ft 420 kts 252°
2026-04-30 21:00 42.56249 -2.43769 28788 ft 421 kts 251°
2026-04-30 21:00 42.54396 -2.51345 29878 ft 423 kts 251°
2026-04-30 21:01 42.52511 -2.59026 30640 ft 431 kts 251°
2026-04-30 21:01 42.51551 -2.62927 31035 ft 433 kts 251°
2026-04-30 21:01 42.49617 -2.70763 31764 ft 438 kts 250°
2026-04-30 21:02 42.48623 -2.74782 32022 ft 443 kts 250°
2026-04-30 21:02 42.47630 -2.78790 32232 ft 447 kts 250°
2026-04-30 21:02 42.46623 -2.82849 32444 ft 450 kts 250°
2026-04-30 21:02 42.45594 -2.86968 32655 ft 453 kts 250°
2026-04-30 21:03 42.44391 -2.90953 32866 ft 454 kts 244°
2026-04-30 21:03 42.43031 -2.94934 33076 ft 456 kts 244°
2026-04-30 21:03 42.41708 -2.98809 33179 ft 459 kts 244°
2026-04-30 21:04 42.38973 -3.06813 33171 ft 464 kts 244°
2026-04-30 21:04 42.34874 -3.18776 33185 ft 463 kts 244°
2026-04-30 21:05 42.32124 -3.26781 33189 ft 463 kts 244°
2026-04-30 21:05 42.29384 -3.34735 33186 ft 463 kts 244°
2026-04-30 21:06 42.26645 -3.42664 33173 ft 463 kts 244°
2026-04-30 21:06 42.23896 -3.50603 33167 ft 463 kts 244°
2026-04-30 21:07 42.21135 -3.58553 33164 ft 464 kts 244°
2026-04-30 21:07 42.18345 -3.66564 33163 ft 465 kts 243°
2026-04-30 21:08 42.15585 -3.74469 33163 ft 466 kts 243°
2026-04-30 21:08 42.12802 -3.82417 33161 ft 466 kts 243°
2026-04-30 21:09 42.09977 -3.90462 33159 ft 466 kts 243°
2026-04-30 21:09 42.07180 -3.98406 33158 ft 466 kts 243°
2026-04-30 21:10 42.04379 -4.06335 33157 ft 466 kts 243°
2026-04-30 21:10 42.01678 -4.14320 33155 ft 466 kts 246°
2026-04-30 21:11 41.99932 -4.22738 33153 ft 470 kts 258°
2026-04-30 21:11 41.98850 -4.31534 33152 ft 471 kts 259°
2026-04-30 21:12 41.97765 -4.40281 33148 ft 471 kts 259°
2026-04-30 21:12 41.96674 -4.49026 33144 ft 472 kts 259°
2026-04-30 21:13 41.95559 -4.57900 33142 ft 472 kts 259°
2026-04-30 21:13 41.94456 -4.66619 33134 ft 472 kts 258°
2026-04-30 21:14 41.93342 -4.75377 33138 ft 472 kts 258°
2026-04-30 21:14 41.92218 -4.84150 33139 ft 472 kts 258°
2026-04-30 21:15 41.91093 -4.92881 33139 ft 473 kts 258°
2026-04-30 21:15 41.89953 -5.01671 33138 ft 473 kts 258°
2026-04-30 21:16 41.88804 -5.10478 33138 ft 473 kts 258°
2026-04-30 21:16 41.87657 -5.19217 33139 ft 473 kts 258°
2026-04-30 21:17 41.86499 -5.27979 33136 ft 472 kts 258°
2026-04-30 21:17 41.85336 -5.36726 33134 ft 472 kts 258°
2026-04-30 21:18 41.84165 -5.45487 33137 ft 472 kts 258°
2026-04-30 21:18 41.82987 -5.54244 33136 ft 472 kts 258°
2026-04-30 21:19 41.81810 -5.62933 33135 ft 472 kts 258°
2026-04-30 21:19 41.80621 -5.71671 33134 ft 471 kts 257°
2026-04-30 21:20 41.79429 -5.80376 33137 ft 471 kts 257°
2026-04-30 21:20 41.78234 -5.89043 33137 ft 471 kts 257°
2026-04-30 21:21 41.77022 -5.97791 33138 ft 470 kts 257°
2026-04-30 21:22 41.75223 -6.10681 33141 ft 470 kts 257°
2026-04-30 21:23 41.72781 -6.28002 33139 ft 470 kts 257°
2026-04-30 21:23 41.70943 -6.40918 33139 ft 457 kts 257°
2026-04-30 21:24 41.69746 -6.49272 33139 ft 449 kts 257°
2026-04-30 21:24 41.68556 -6.57539 33141 ft 447 kts 257°
2026-04-30 21:25 41.66776 -6.69807 33144 ft 446 kts 256°
2026-04-30 21:26 41.64977 -6.82105 32533 ft 450 kts 256°
2026-04-30 21:26 41.64376 -6.86193 31976 ft 449 kts 256°
2026-04-30 21:27 41.63163 -6.94413 30810 ft 449 kts 256°
2026-04-30 21:27 41.62560 -6.98485 30227 ft 450 kts 256°
2026-04-30 21:27 41.61940 -7.02655 29623 ft 451 kts 256°
2026-04-30 21:28 41.60712 -7.10897 28413 ft 454 kts 256°
2026-04-30 21:28 41.60091 -7.15045 27805 ft 456 kts 256°
2026-04-30 21:28 41.58831 -7.23432 26583 ft 458 kts 257°
2026-04-30 21:29 41.58208 -7.27566 25978 ft 458 kts 256°
2026-04-30 21:29 41.56319 -7.40038 24127 ft 444 kts 256°
2026-04-30 21:30 41.55134 -7.47828 23014 ft 411 kts 256°
2026-04-30 21:31 41.53495 -7.58529 21474 ft 375 kts 256°
2026-04-30 21:31 41.52453 -7.65282 20468 ft 368 kts 256°
2026-04-30 21:32 41.52348 -7.72143 19451 ft 367 kts 271°
2026-04-30 21:32 41.52526 -7.75500 18966 ft 364 kts 271°
2026-04-30 21:32 41.52701 -7.78902 18484 ft 360 kts 271°
2026-04-30 21:32 41.52873 -7.82258 18010 ft 358 kts 271°
2026-04-30 21:33 41.53041 -7.85579 17535 ft 355 kts 271°
2026-04-30 21:33 41.53370 -7.92134 16597 ft 350 kts 271°
2026-04-30 21:33 41.53531 -7.95403 16128 ft 348 kts 271°
2026-04-30 21:34 41.53690 -7.98631 15665 ft 346 kts 272°
2026-04-30 21:34 41.54002 -8.05043 14750 ft 342 kts 272°
2026-04-30 21:34 41.54155 -8.08205 14293 ft 340 kts 272°
2026-04-30 21:35 41.54306 -8.11365 13846 ft 338 kts 272°
2026-04-30 21:35 41.54455 -8.14499 13395 ft 336 kts 272°
2026-04-30 21:35 41.54603 -8.17630 12941 ft 334 kts 272°
2026-04-30 21:35 41.54749 -8.20733 12503 ft 333 kts 272°
2026-04-30 21:36 41.54894 -8.23837 12059 ft 331 kts 272°
2026-04-30 21:36 41.55036 -8.26923 11618 ft 330 kts 272°
2026-04-30 21:37 41.55455 -8.36051 10308 ft 325 kts 272°
2026-04-30 21:37 41.55464 -8.39042 9879 ft 322 kts 265°
2026-04-30 21:37 41.55251 -8.42039 9442 ft 321 kts 263°
2026-04-30 21:37 41.55038 -8.44985 8988 ft 311 kts 263°
2026-04-30 21:38 41.54837 -8.47808 8614 ft 299 kts 263°
2026-04-30 21:38 41.54643 -8.50521 8219 ft 289 kts 263°
2026-04-30 21:38 41.54455 -8.53138 7845 ft 280 kts 263°
2026-04-30 21:38 41.54269 -8.55720 7472 ft 271 kts 263°
2026-04-30 21:39 41.54091 -8.58198 7109 ft 263 kts 263°
2026-04-30 21:39 41.53919 -8.60582 6773 ft 253 kts 263°
2026-04-30 21:39 41.53700 -8.62799 6464 ft 235 kts 257°
2026-04-30 21:39 41.53371 -8.64894 6150 ft 221 kts 255°
2026-04-30 21:40 41.52967 -8.66883 5895 ft 220 kts 250°
2026-04-30 21:40 41.52668 -8.68881 5629 ft 221 kts 270°
2026-04-30 21:40 41.52772 -8.70901 5359 ft 212 kts 264°
2026-04-30 21:40 41.52221 -8.72613 5021 ft 202 kts 224°
2026-04-30 21:41 41.51002 -8.73465 4681 ft 195 kts 195°
2026-04-30 21:41 41.49687 -8.73927 4386 ft 193 kts 193°
2026-04-30 21:41 41.48336 -8.74074 4146 ft 194 kts 177°
2026-04-30 21:41 41.46980 -8.73866 3882 ft 196 kts 173°
2026-04-30 21:42 41.45626 -8.73571 3642 ft 196 kts 171°
2026-04-30 21:42 41.44273 -8.73238 3390 ft 196 kts 170°
2026-04-30 21:42 41.42946 -8.72894 3163 ft 189 kts 170°
2026-04-30 21:42 41.41642 -8.72553 2929 ft 187 kts 170°
2026-04-30 21:43 41.40370 -8.72219 2707 ft 185 kts 169°
2026-04-30 21:43 41.39104 -8.71886 2484 ft 183 kts 169°
2026-04-30 21:43 41.37870 -8.71561 2241 ft 176 kts 169°
2026-04-30 21:43 41.36705 -8.71254 2068 ft 167 kts 169°
2026-04-30 21:44 41.35560 -8.70952 1859 ft 163 kts 169°
2026-04-30 21:44 41.34513 -8.70676 1710 ft 140 kts 169°
2026-04-30 21:44 41.33569 -8.70427 1525 ft 135 kts 169°
2026-04-30 21:44 41.32651 -8.70196 1297 ft 131 kts 171°
2026-04-30 21:45 41.31756 -8.69984 1133 ft 129 kts 169°
2026-04-30 21:45 41.30876 -8.69737 1013 ft 128 kts 170°
2026-04-30 21:45 41.30007 -8.69511 908 ft 127 kts 168°
2026-04-30 21:45 41.29129 -8.69279 761 ft 127 kts 170°
2026-04-30 21:46 41.28268 -8.69052 598 ft 126 kts 168°
2026-04-30 21:46 41.27405 -8.68810 440 ft 125 kts 168°
2026-04-30 21:46 41.26538 -8.68584 296 ft 126 kts 169°
2026-04-30 21:46 41.25697 -8.68361 171 ft 117 kts 168°
2026-04-30 21:47 41.24975 -8.68170 183 ft 92 kts 168°
2026-04-30 21:47 41.24403 -8.68020 200 ft 75 kts 168°
2026-04-30 21:47 41.23987 -8.67912 210 ft 50 kts 168°
2026-04-30 21:47 41.23889 -8.67851 211 ft 17 kts 86°
2026-04-30 21:48 41.23912 -8.67679 216 ft 12 kts 80°
2026-04-30 21:48 41.23917 -8.67639 217 ft 0 kts 79°
2026-04-30 21:48 41.23922 -8.67609 218 ft 3 kts 78°
2026-04-30 21:48 41.23922 -8.67608 218 ft 0 kts 79°
2026-04-30 21:49 41.23922 -8.67607 218 ft 0 kts 79°
2026-04-30 21:49 41.23924 -8.67592 219 ft 1 kts 79°
2026-04-30 21:49 41.23931 -8.67558 221 ft 5 kts 63°
2026-04-30 21:49 41.23977 -8.67519 223 ft 11 kts
2026-04-30 21:50 41.24037 -8.67546 221 ft 8 kts 253°
2026-04-30 21:50 41.24023 -8.67630 216 ft 6 kts 256°
2026-04-30 21:50 41.24022 -8.67635 216 ft 0 kts 258°